GW2960 Weather Reports


time (UTC)temp
C
wind
direction
speed
KPH
gust
KPH
rain 1hr
cm
rain 24hr
cm
rain mn
cm
humidity
%
barometer
mb
20260503053023 26 263 4.8 11.3 0.00 0.00 0.00 78 1013.6
20260503051549 27 284 3.2 12.9 0.00 0.00 0.00 78 1013.8
20260503050022 27 277 8.0 16.1 0.00 0.00 0.00 78 1014.0
20260503044519 27 287 6.4 12.9 0.00 0.00 0.00 77 1014.0
20260503043044 27 288 6.4 14.5 0.00 0.00 0.00 77 1014.0
20260503041505 27 279 6.4 12.9 0.00 0.00 0.00 76 1013.8
20260503040047 27 255 8.0 12.9 0.00 0.00 0.00 76 1013.8
20260503034514 27 247 4.8 16.1 0.00 0.00 0.00 75 1013.7
20260503033038 27 296 4.8 16.1 0.00 0.00 0.00 75 1013.5
20260503031504 27 278 9.7 16.1 0.00 0.00 0.00 73 1013.4
20260503030041 27 270 8.0 17.7 0.00 0.00 0.00 72 1013.4
20260503024533 27 252 8.0 20.9 0.00 0.00 0.00 71 1013.3
20260503023054 28 252 8.0 19.3 0.00 0.00 0.00 70 1013.4
20260503021522 28 271 9.7 20.9 0.00 0.00 0.00 68 1013.3
20260503020040 28 298 12.9 20.9 0.00 0.00 0.00 67 1013.2
20260503014540 28 250 8.0 19.3 0.00 0.00 0.00 65 1013.1
20260503013100 29 281 11.3 25.7 0.00 0.00 0.00 64 1012.9
20260503011518 29 293 14.5 27.4 0.00 0.00 0.00 62 1012.7
20260503010052 30 275 12.9 25.7 0.00 0.00 0.00 60 1012.5
20260503004548 30 262 16.1 24.1 0.00 0.00 0.00 58 1012.3
20260503003017 30 262 12.9 24.1 0.00 0.00 0.00 55 1012.1
20260503001604 31 306 12.9 27.4 0.00 0.00 0.00 53 1011.9
20260503000023 31 296 11.3 29.0 0.00 0.00 0.00 49 1011.8
20260502234532 32 272 8.0 22.5 0.00 0.00 0.00 44 1011.4
20260502233052 32 292 11.3 22.5 0.00 0.00 0.00 42 1011.2
20260502231517 32 289 11.3 22.5 0.00 0.00 0.00 42 1010.8
20260502230043 32 272 8.0 17.7 0.00 0.00 0.00 42 1010.6
20260502224542 33 301 8.0 27.4 0.00 0.00 0.00 42 1010.5
20260502223012 33 213 6.4 25.7 0.00 0.00 0.00 42 1010.4
20260502221540 33 203 8.0 22.5 0.00 0.00 0.00 41 1010.4
20260502220004 34 298 8.0 24.1 0.00 0.00 0.00 41 1010.3
20260502214509 34 247 8.0 22.5 0.00 0.00 0.00 39 1010.2
20260502213036 34 290 11.3 24.1 0.00 0.00 0.00 40 1010.1
20260502211556 35 242 16.1 29.0 0.00 0.00 0.00 39 1010.0
20260502210010 34 251 12.9 25.7 0.00 0.00 0.00 40 1009.8
20260502203010 34 222 16.1 37.0 0.00 0.00 0.00 41 1010.0
20260502200043 34 206 9.7 32.2 0.00 0.00 0.00 44 1010.3
20260502194535 34 257 16.1 29.0 0.00 0.00 0.00 44 1010.3
20260502193002 35 224 16.1 33.8 0.00 0.00 0.00 43 1010.4
20260502191525 35 261 17.7 30.6 0.00 0.00 0.00 44 1010.6
20260502190104 33 236 19.3 35.4 0.00 0.00 0.00 46 1010.6
20260502184547 30 164 6.4 24.1 0.00 0.00 0.00 75 1010.7
20260502183021 30 144 11.3 25.7 0.00 0.00 0.00 76 1010.9
20260502181541 30 180 9.7 20.9 0.00 0.00 0.00 78 1010.9
20260502163002 29 205 8.0 16.1 0.00 0.00 0.00 81 1011.9
20260502161528 29 206 4.8 19.3 0.00 0.00 0.00 80 1012.0
20260502151611 29 151 8.0 22.5 0.00 0.00 0.00 82 1012.3
20260502123028 27 232 1.6 11.3 0.00 0.00 0.00 85 1011.9
20260502121546 26 225 1.6 6.4 0.00 0.00 0.00 86 1011.9
20260502114512 25 213 3.2 4.8 0.00 0.00 0.00 87 1011.9
20260502113038 25 269 0.0 3.2 0.00 0.00 0.00 87 1012.0
20260502111516 25 269 0.0 0.0 0.00 0.00 0.00 87 1012.2
20260502110036 24 269 0.0 0.0 0.00 0.00 0.00 87 1011.9
20260502104529 24 269 0.0 0.0 0.00 0.00 0.00 87 1011.9
20260502103059 24 269 0.0 1.6 0.00 0.00 0.00 86 1012.0
20260502103002 24 269 0.0 1.6 0.00 0.00 0.00 86 1011.9
20260502101540 24 269 0.0 3.2 0.00 0.00 0.00 86 1011.8
20260502071515 24 293 1.6 6.4 0.00 0.00 0.00 81 1011.9
20260502070038 25 287 1.6 4.8 0.00 0.00 0.00 81 1012.0
20260502064538 25 285 1.6 6.4 0.00 0.00 0.00 80 1012.0
20260502063056 25 293 3.2 6.4 0.00 0.00 0.00 81 1012.0
20260502061522 25 268 1.6 4.8 0.00 0.00 0.00 83 1012.1
20260502060039 26 252 1.6 6.4 0.00 0.00 0.00 85 1012.1
20260502054532 26 209 1.6 8.0 0.00 0.00 0.00 85 1012.1